Burleson, TX

12:18 PM CDT on July 25, 2016 (GMT -0500)
Fort Worth Spinks

Weather History for KFWS - August, 2013

Change the Weather History Date:

Tuesday, August 13, 2013

  Actual Average (KDFW) Record (KDFW)
Temperature  
Mean Temperature 85 °F 86 °F  
Max Temperature 99 °F 97 °F 105 °F (1951)
Min Temperature 72 °F 76 °F 56 °F (1967)
Degree Days  
Heating Degree Days 0 0  
Month to date heating degree days 0  
Since 1 June heating degree days 0  
Since 1 July heating degree days 0  
Cooling Degree Days 20 21  
Month to date cooling degree days 273  
Year to date cooling degree days 1817  
Since 1 June cooling degree days 1395  
Growing Degree Days 35 (Base 50)    
Moisture  
Dew Point 67 °F    
Average Humidity 60    
Maximum Humidity 91    
Minimum Humidity 32    
Precipitation  
Precipitation 0.16 in 0.05 in 2.27 in (1968)
Month to date precipitation 0.71  
Year to date precipitation 22.91  
Sea Level Pressure  
Sea Level Pressure 29.97 in    
Wind  
Wind Speed 6 mph (SSW)    
Max Wind Speed 16 mph    
Max Gust Speed 53 mph    
Visibility 10 miles    
Events Rain , Thunderstorm    
T = Trace of Precipitation, MM = Missing Value Source: NWS Daily Summary

Daily Weather History Graph

Daily Weather History Graph

Search for Another Location

Airport or City:

Trip Planner

Search our weather history database for the weather conditions in past years. The results will help you decide how hot, cold, wet, or windy it might be!

Date:

Astronomy

Aug. 13, 2013 Rise Set
Actual Time 6:51 AM CDT 8:15 PM CDT
Civil Twilight 6:25 AM CDT 8:41 PM CDT
Nautical Twilight 5:54 AM CDT 9:12 PM CDT
Astronomical Twilight 5:22 AM CDT 9:45 PM CDT
Moon 1:21 PM CDT (8/13) No Moon Set
Length of Visible Light 14h 15m
Length of Day
13h 23m
Waxing Crescent, 42% of the Moon is Illuminated
Aug 13
Waxing Crescent
Aug 14
First Quarter
Aug 20
Full
Aug 28
Last Quarter
Sep 5
New

Hourly Weather History & Observations

Time (CDT) Temp. Heat Index Dew Point Humidity Pressure Visibility Wind Dir Wind Speed Gust Speed Precip Events Conditions
12:15 AM 84.6 °F 85.9 °F 63.9 °F 50% 29.97 in 10.0 mi South 4.6 mph - N/A   Clear
12:35 AM 84.6 °F 85.9 °F 63.9 °F 50% 29.97 in 10.0 mi South 4.6 mph - N/A   Clear
12:55 AM 83.8 °F 85.1 °F 63.7 °F 51% 29.97 in 10.0 mi South 3.5 mph - N/A   Clear
1:15 AM 83.7 °F 84.9 °F 63.7 °F 51% 29.97 in 10.0 mi South 3.5 mph - N/A   Clear
1:35 AM 83.8 °F 85.1 °F 63.7 °F 51% 29.98 in 10.0 mi SSW 3.5 mph - N/A   Clear
1:55 AM 83.7 °F 84.9 °F 63.5 °F 51% 29.98 in 10.0 mi South 4.6 mph - N/A   Clear
2:15 AM 82.9 °F 84.2 °F 63.9 °F 52% 29.97 in 10.0 mi South 5.8 mph - N/A   Clear
2:35 AM 82.8 °F 84.3 °F 64.4 °F 54% 29.97 in 10.0 mi South 4.6 mph - N/A   Clear
2:55 AM 82.0 °F 83.6 °F 64.4 °F 55% 29.97 in 10.0 mi South 5.8 mph - N/A   Clear
3:15 AM 82.4 °F 83.9 °F 64.4 °F 54% 29.97 in 10.0 mi South 6.9 mph - N/A   Clear
3:35 AM 82.6 °F 84.1 °F 64.6 °F 54% 29.97 in 10.0 mi South 9.2 mph - N/A   Clear
3:55 AM 82.8 °F 84.3 °F 64.4 °F 54% 29.97 in 10.0 mi South 6.9 mph - N/A   Clear
4:15 AM 82.8 °F 84.3 °F 64.8 °F 54% 29.97 in 10.0 mi SSW 8.1 mph - N/A   Clear
4:35 AM 82.4 °F 84.1 °F 64.8 °F 55% 29.97 in 10.0 mi SSW 8.1 mph - N/A   Clear
4:55 AM 82.2 °F 84.0 °F 65.1 °F 56% 29.97 in 10.0 mi SSW 8.1 mph - N/A   Clear
5:15 AM 81.9 °F 83.9 °F 65.7 °F 58% 29.97 in 10.0 mi SSW 6.9 mph - N/A   Clear
5:35 AM 81.9 °F 84.1 °F 66.2 °F 59% 29.97 in 10.0 mi SSW 8.1 mph - N/A   Clear
5:55 AM 81.0 °F 83.2 °F 66.2 °F 61% 29.97 in 10.0 mi SSW 5.8 mph - N/A   Clear
6:15 AM 80.4 °F 82.6 °F 66.2 °F 62% 29.98 in 10.0 mi SSW 5.8 mph - N/A   Clear
6:50 AM 80.6 °F 82.7 °F 66.2 °F 61% 29.98 in 10.0 mi South 6.9 mph - N/A   Clear
7:48 AM 82.4 °F 85.4 °F 68.0 °F 62% 29.99 in 10.0 mi SSW 8.1 mph - N/A   Clear
8:48 AM 86.0 °F 90.4 °F 69.8 °F 58% 30.02 in 10.0 mi SSW 8.1 mph - N/A   Clear
9:51 AM 91.4 °F 96.8 °F 69.8 °F 49% 30.03 in 10.0 mi WSW 11.5 mph - N/A   Clear
10:50 AM 91.4 °F 94.0 °F 66.2 °F 43% 30.04 in 10.0 mi WSW 11.5 mph - N/A   Mostly Cloudy
11:50 AM 93.2 °F 96.2 °F 66.2 °F 41% 30.04 in 10.0 mi SW 11.5 mph - N/A   Mostly Cloudy
12:48 PM 96.8 °F 100.7 °F 66.2 °F 37% 30.02 in 10.0 mi West 10.4 mph 18.4 mph N/A   Mostly Cloudy
1:50 PM 98.6 °F 101.0 °F 64.4 °F 32% 29.98 in 10.0 mi WSW 6.9 mph - N/A   Mostly Cloudy
2:46 PM 93.2 °F 96.2 °F 66.2 °F 41% 29.97 in 10.0 mi SW 15.0 mph 20.7 mph N/A   Mostly Cloudy
3:46 PM 96.8 °F 100.7 °F 66.2 °F 37% 29.94 in 10.0 mi NNE 6.9 mph - N/A   Scattered Clouds
4:45 PM 91.4 °F 98.4 °F 71.6 °F 52% 29.93 in 7.0 mi NW 11.5 mph 20.7 mph N/A Rain Light Rain
5:46 PM 96.8 °F 100.7 °F 66.2 °F 37% 29.91 in 10.0 mi SSW 5.8 mph - N/A   Scattered Clouds
6:45 PM 89.6 °F 94.7 °F 69.8 °F 52% 29.93 in 10.0 mi NNE 13.8 mph 20.7 mph N/A   Mostly Cloudy
7:55 PM 72.5 °F - 69.1 °F 89% 29.93 in 1.2 mi ENE 16.1 mph 52.9 mph 0.16 in Rain , Thunderstorm Light Thunderstorms and Rain
8:15 PM 77.7 °F - 66.2 °F 68% 29.94 in 10.0 mi ENE 9.2 mph 12.7 mph N/A   Unknown
8:35 PM 75.7 °F - 68.4 °F 78% 29.94 in 10.0 mi Calm Calm - N/A   Scattered Clouds
8:55 PM 75.2 °F - 68.4 °F 79% 29.95 in 10.0 mi Calm Calm - N/A   Clear
9:15 PM 75.2 °F - 69.3 °F 82% 29.95 in 10.0 mi Calm Calm - N/A   Clear
9:35 PM 76.5 °F - 69.8 °F 80% 29.95 in 10.0 mi Calm Calm - N/A   Clear
9:55 PM 76.5 °F - 70.5 °F 82% 29.96 in 10.0 mi NNW 3.5 mph - N/A   Clear
10:15 PM 76.8 °F - 70.9 °F 82% 29.97 in 10.0 mi NNW 3.5 mph - N/A   Clear
10:35 PM 77.7 °F - 70.5 °F 78% 29.97 in 10.0 mi Calm Calm - N/A   Clear
10:55 PM 76.6 °F - 72.5 °F 87% 29.97 in 10.0 mi Calm Calm - N/A   Clear
11:15 PM 76.8 °F - 73.0 °F 88% 29.97 in 10.0 mi Calm Calm - N/A   Clear
11:35 PM 76.6 °F - 73.8 °F 91% 29.98 in 10.0 mi Calm Calm - N/A   Scattered Clouds
11:55 PM 76.6 °F - 73.4 °F 90% 29.99 in 10.0 mi Calm Calm - N/A   Scattered Clouds